THOR ABLESTAR DEB, 254

Orbit data source: Space-Track

THOR ABLESTAR DEB, 254 is space debris in LEO originally from a launch on Thu, 29 Jun 1961 UTC launched from the Air Force Eastern Test Range (AFETR). Debris objects in space refer to the collection of defunct objects orbiting the Earth. Examples of debris include non-operational satellites, rocket bodies, and fragments generated from explosions, collisions, or faulty payload assembly.

Loading next visibility...
Identifier
254, 1961-015CF
Orbit
LEO
Country
Flag of USUS
Related business
Manufacturer
Unknown
Mission
Spacecraft
Bus & Motor
Unknown
Mass
Unknown
Launch date (UTC)
1961-06-29 (65 years ago)
Launch vehicle
Unknown
Launch site
Air Force Eastern Test Range (AFETR)
Object type
Payload
Rocket body
Debris
Shape & HBR
Unknown shape, 0.1 m
Radar Cross Section
Small (<0.1 m²)

Expand to show TLE details & history
Last TLE update: 12 hours ago

TLE from 12 hours ago
0 THOR ABLESTAR DEB
1 00254U 61015CF  26128.14592817  .00001548  00000-0  39324-3 0  9992
2 00254  66.7736  27.2642 0052907 110.0797 250.6019 14.52671728367865
Epoch: 2026-05-08T03:30Z
TLE epoch observation values (Epoch: 2026-05-08T03:30:08.193Z)
Latitude
-0°
Longitude
108.74815°
Altitude
731.716 km
Speed
7.483 km/s
True Right ascension
01h 49m 03s
True Declination
0° 00' 00"
Sunlit
Object was in daylight at epoch
Visualization orbit readout
Latitude
Unknown
Longitude
Unknown
Altitude
Unknown
Speed
Unknown
Apparent Right ascension
Unknown
Apparent Declination
Unknown
Sunlit
N/A
Visualization observer readout
Local Sidereal Time
23:05:28
Azimuth
Unknown
Elevation
Unknown
Doppler factor
Unknown
Orbital elements
Apogee altitude
752.814 km
Perigee altitude
677.756 km
Semi-major axis
7,093.422 km
Eccentricity
0.00529
Inclination
66.7736°
RAAN
27.2642°
Arg. of periapsis
110.0797°
True anomaly
250.03131°
Mean anomaly
250.6019°
Eccentric anomaly
250.31648°
Mean motion
3.63295 °/min
Orbital period
99.09 mins
BSTAR
0.00039324
Loading maneuver chart data...
Computing Atmospheric mass density...

Documentation

Showing up to 5 results
|